| time (UTC) | temp F | wind direction | speed knots | gust knots | rain 1hr in | rain 24hr in | rain mn in | humidity % | barometer mb |
| 20260504174601 | 56 | 172 | 4.3 | 7.8 | 0.00 | 0.00 | 0.00 | 84 | 1013.7 |
| 20260504173054 | 55 | 222 | 2.6 | 9.6 | 0.00 | 0.00 | 0.00 | 83 | 1013.7 |
| 20260504171551 | 54 | 194 | 4.3 | 12.2 | 0.00 | 0.00 | 0.00 | 84 | 1013.7 |
| 20260504140107 | 51 | 206 | 6.1 | 13.0 | 0.00 | 0.00 | 0.00 | 88 | 1012.1 |
| 20260504110117 | 55 | 186 | 7.0 | 13.0 | 0.00 | 0.00 | 0.00 | 79 | 1010.2 |
| 20260504100106 | 59 | 201 | 5.2 | 9.6 | 0.00 | 0.00 | 0.00 | 71 | 1009.7 |
| 20260504090115 | 64 | 196 | 0.9 | 1.7 | 0.00 | 0.00 | 0.00 | 58 | 1009.3 |
| 20260504081554 | 66 | 339 | 0.9 | 4.3 | 0.00 | 0.00 | 0.00 | 53 | 1009.2 |
| 20260504044600 | 73 | 329 | 3.5 | 7.8 | 0.00 | 0.00 | 0.00 | 43 | 1008.5 |
| 20260504043054 | 73 | 360 | 3.5 | 7.0 | 0.00 | 0.00 | 0.00 | 44 | 1008.3 |
| 20260504041554 | 74 | 67 | 3.5 | 7.8 | 0.00 | 0.00 | 0.00 | 43 | 1008.2 |
| 20260504040050 | 74 | 9 | 1.7 | 7.8 | 0.00 | 0.00 | 0.00 | 46 | 1008.1 |
| 20260504034603 | 75 | 333 | 2.6 | 5.2 | 0.00 | 0.00 | 0.00 | 44 | 1008.0 |
| 20260504033056 | 76 | 319 | 2.6 | 7.0 | 0.00 | 0.00 | 0.00 | 42 | 1007.8 |
| 20260504031550 | 76 | 344 | 3.5 | 7.0 | 0.00 | 0.00 | 0.00 | 40 | 1007.8 |
| 20260504030049 | 77 | 344 | 3.5 | 7.8 | 0.00 | 0.00 | 0.00 | 38 | 1007.9 |
| 20260504024548 | 78 | 339 | 1.7 | 7.0 | 0.00 | 0.00 | 0.00 | 38 | 1007.9 |
| 20260504023048 | 78 | 360 | 3.5 | 9.6 | 0.00 | 0.00 | 0.00 | 36 | 1007.8 |
| 20260504021544 | 78 | 346 | 2.6 | 7.0 | 0.00 | 0.00 | 0.00 | 38 | 1007.7 |
| 20260504020047 | 79 | 334 | 1.7 | 7.0 | 0.00 | 0.00 | 0.00 | 37 | 1007.7 |
| 20260504014551 | 79 | 340 | 2.6 | 7.0 | 0.00 | 0.00 | 0.00 | 38 | 1007.8 |
| 20260504013051 | 81 | 10 | 2.6 | 7.8 | 0.00 | 0.00 | 0.00 | 33 | 1007.8 |
| 20260504011552 | 81 | 360 | 5.2 | 9.6 | 0.00 | 0.00 | 0.00 | 32 | 1008.0 |
| 20260504010056 | 82 | 360 | 2.6 | 7.0 | 0.00 | 0.00 | 0.00 | 32 | 1008.2 |
| 20260504004550 | 83 | 44 | 2.6 | 7.8 | 0.00 | 0.00 | 0.00 | 31 | 1008.3 |
| 20260504003053 | 83 | 37 | 3.5 | 7.0 | 0.00 | 0.00 | 0.00 | 31 | 1008.4 |
| 20260504001611 | 84 | 38 | 1.7 | 8.7 | 0.00 | 0.00 | 0.00 | 31 | 1008.3 |
| 20260504000049 | 84 | 5 | 2.6 | 11.3 | 0.00 | 0.00 | 0.00 | 30 | 1008.3 |
| 20260503234549 | 84 | 26 | 3.5 | 8.7 | 0.00 | 0.00 | 0.00 | 32 | 1008.4 |
| 20260503233057 | 85 | 5 | 4.3 | 10.4 | 0.00 | 0.00 | 0.00 | 30 | 1008.7 |
| 20260503231555 | 85 | 344 | 2.6 | 7.8 | 0.00 | 0.00 | 0.00 | 31 | 1008.7 |
| 20260503230054 | 85 | 348 | 0.9 | 5.2 | 0.00 | 0.00 | 0.00 | 33 | 1009.0 |
| 20260503224553 | 85 | 15 | 2.6 | 7.0 | 0.00 | 0.00 | 0.00 | 29 | 1009.2 |
| 20260503223056 | 85 | 24 | 3.5 | 7.0 | 0.00 | 0.00 | 0.00 | 32 | 1009.4 |
| 20260503221556 | 85 | 342 | 2.6 | 8.7 | 0.00 | 0.00 | 0.00 | 31 | 1009.5 |
| 20260503220105 | 84 | 352 | 2.6 | 11.3 | 0.00 | 0.00 | 0.00 | 32 | 1009.7 |
| 20260503214554 | 84 | 51 | 4.3 | 9.6 | 0.00 | 0.00 | 0.00 | 31 | 1010.1 |
| 20260503213052 | 84 | 5 | 4.3 | 8.7 | 0.00 | 0.00 | 0.00 | 36 | 1010.2 |
| 20260503211605 | 83 | 9 | 4.3 | 8.7 | 0.00 | 0.00 | 0.00 | 38 | 1010.2 |
| 20260503210052 | 82 | 9 | 3.5 | 8.7 | 0.00 | 0.00 | 0.00 | 43 | 1010.4 |
| 20260503204555 | 81 | 344 | 3.5 | 8.7 | 0.00 | 0.00 | 0.00 | 44 | 1010.7 |
| 20260503203050 | 81 | 15 | 3.5 | 10.4 | 0.00 | 0.00 | 0.00 | 43 | 1010.8 |
| 20260503201551 | 80 | 5 | 4.3 | 9.6 | 0.00 | 0.00 | 0.00 | 47 | 1010.8 |
| 20260503200054 | 79 | 9 | 6.1 | 9.6 | 0.00 | 0.00 | 0.00 | 48 | 1011.0 |
| 20260503194555 | 77 | 342 | 4.3 | 8.7 | 0.00 | 0.00 | 0.00 | 49 | 1011.2 |
| 20260503193102 | 77 | 22 | 3.5 | 8.7 | 0.00 | 0.00 | 0.00 | 51 | 1011.3 |
| 20260503191555 | 76 | 5 | 3.5 | 7.8 | 0.00 | 0.00 | 0.00 | 53 | 1011.5 |
| 20260503190053 | 75 | 11 | 3.5 | 7.8 | 0.00 | 0.00 | 0.00 | 51 | 1011.7 |
| 20260503184547 | 74 | 345 | 3.5 | 8.7 | 0.00 | 0.00 | 0.00 | 55 | 1011.8 |
| 20260503183054 | 73 | 14 | 3.5 | 9.6 | 0.00 | 0.00 | 0.00 | 58 | 1012.1 |
| 20260503181618 | 72 | 348 | 3.5 | 7.0 | 0.00 | 0.00 | 0.00 | 59 | 1012.2 |
| 20260503180059 | 70 | 16 | 3.5 | 7.8 | 0.00 | 0.00 | 0.00 | 63 | 1012.1 |